Temp
7 7 7 7 7 7 7 7 6 6 6 6 6 6 6 6 6 6 6 6 6 5 5 5 5 5 5 5 5 5 5 5 5 5 5 5 5 4 4 4 4 4 4
7 7 7 7 6 6 6 6 6 6 6 6 6 6 6 6 6 6 6 6 6 5 5 5 5 5 5 5 5 5 5 5 4 4 4 4 4 4 4 4 4 4 4
6 6 6 6 6 6 6 6 6 6 5 5 5 5 5 5 5 5 5 5 5 5 5 5 5 4 4 5 4 4 4 4 4 4 4 4 4 4 3 3 3 3 4
6 6 6 6 6 6 5 6 5 5 5 5 5 5 5 5 5 5 5 5 5 5 5 5 4 4 4 4 4 4 4 4 4 4 4 3 3 3 3 3 3 3 3
5 5 5 5 5 5 5 5 5 5 4 5 5 4 4 4 4 4 4 4 5 4 4 4 4 4 4 4 4 4 3 3 3 3 3 3 3 3 3 3 3 3 3
5 5 5 5 5 4 4 4 4 4 4 4 4 4 4 4 4 4 4 4 4 4 4 3 3 3 3 3 4 3 3 3 3 3 3 3 3 3 3 2 2 2 2
5 5 5 4 4 4 4 4 4 4 3 3 3 3 3 3 3 3 3 3 3 3 3 3 3 3 3 3 3 3 3 3 2 2 2 2 2 2 2 2 2 2 2
5 4 4 4 5 4 4 4 4 4 3 3 2 2 2 3 3 3 3 3 3 3 3 3 3 2 2 2 2 2 2 2 2 2 2 2 2 2 1 1 1 1 1
5 4 3 4 4 5 4 4 4 3 3 3 2 2 2 3 2 3 2 2 2 2 2 2 2 2 2 2 2 2 2 2 2 1 1 1 1 1 1 1 1 1 1
5 4 4 4 3 4 4 4 4 3 3 3 2 2 2 2 2 2 2 2 2 2 2 2 2 2 1 1 1 0 -1 -0 1 1 1 1 1 1 1 0 0 0 0
6 5 5 4 4 3 3 3 3 3 3 3 3 2 2 2 2 1 1 1 1 1 1 1 1 1 1 0 0 -0 -1 -0 -1 -1 -0 0 0 0 0 0 0 0 -0
5 5 5 4 4 4 3 3 3 2 2 2 2 1 1 1 1 0 0 0 -0 -0 0 0 1 0 1 1 0 -0 -0 -1 -1 -0 -2 -1 -0 -1 -1 -0 -1 -1 -0
5 4 4 4 4 4 3 3 3 2 2 2 1 1 1 1 0 0 -0 -1 -0 -1 -1 -1 -0 -0 0 -0 -0 -1 -1 -0 -0 -0 -1 -3 -2 -2 -2 -2 -2 -1 -1
4 4 4 3 3 3 2 2 2 2 2 1 1 1 0 -0 -0 -1 -1 -1 -1 -2 -1 -2 -1 -1 -1 -0 -1 -1 -1 -1 -1 -2 -2 -3 -2 -2 -3 -2 -2 -2 -2
4 4 4 3 2 1 1 1 1 1 1 0 -0 -0 -1 -1 -1 -1 -1 -1 -2 -2 -2 -2 -3 -1 -1 -2 -1 -1 -2 -2 -2 -3 -3 -3 -3 -3 -3 -3 -2 -2 -3
5 4 4 3 2 2 1 0 0 0 -0 -1 -1 -1 -2 -2 -2 -2 -2 -2 -2 -3 -3 -3 -2 -2 -2 -2 -1 -1 -2 -2 -2 -3 -2 -3 -3 -3 -3 -3 -3 -3 -3
4 4 4 3 2 2 1 1 1 -0 -1 -1 -2 -2 -3 -3 -3 -3 -3 -3 -3 -3 -4 -3 -3 -2 -2 -2 -1 -2 -3 -2 -3 -3 -3 -3 -3 -3 -3 -3 -3 -3 -3
3 3 3 2 2 2 1 1 0 -0 -1 -1 -2 -2 -2 -3 -3 -3 -3 -4 -4 -4 -4 -4 -3 -3 -2 -2 -1 -3 -4 -3 -3 -4 -4 -4 -4 -4 -4 -4 -3 -3 -3
3 2 2 2 2 1 1 1 0 -0 -1 -1 -1 -2 -2 -3 -3 -3 -3 -3 -4 -4 -4 -3 -3 -3 -3 -3 -3 -3 -3 -3 -4 -4 -5 -4 -4 -4 -4 -4 -4 -3 -3
3 3 2 2 2 1 1 0 0 -1 -1 -1 -1 -2 -2 -2 -2 -2 -3 -2 -5 -4 -4 -3 -3 -4 -4 -4 -4 -4 -4 -5 -5 -5 -5 -5 -4 -4 -4 -4 -4 -4 -4
2 2 2 1 1 1 0 0 -0 -0 -1 -1 -1 -1 -2 -2 -2 -2 -3 -4 -3 -4 -4 -4 -5 -4 -4 -4 -4 -4 -4 -4 -5 -5 -4 -4 -4 -4 -4 -4 -4 -4 -4
2 1 1 0 0 -0 -0 -0 -1 -0 -0 -0 -1 -1 -2 -2 -2 -3 -3 -3 -4 -4 -4 -4 -5 -5 -4 -4 -5 -4 -4 -5 -5 -5 -4 -5 -4 -5 -5 -5 -5 -5 -6
1 0 0 -0 -0 -0 -1 -1 -1 -1 -1 -1 -1 -2 -2 -2 -3 -3 -3 -3 -3 -4 -4 -5 -5 -5 -5 -5 -5 -5 -5 -5 -5 -5 -4 -5 -5 -5 -6 -6 -6 -6 -6
1 0 -0 -0 -0 -1 -1 -1 -1 -1 -1 -1 -1 -2 -2 -2 -3 -3 -3 -3 -3 -4 -4 -5 -5 -5 -5 -5 -5 -5 -5 -5 -5 -5 -5 -6 -6 -7 -7 -7 -7 -7 -8
0 -1 -1 -1 -1 -1 -1 -1 -0 -0 -0 -1 -1 -1 -1 -1 -1 -2 -2 -3 -3 -4 -4 -4 -4 -4 -4 -4 -5 -5 -5 -6 -6 -6 -6 -6 -7 -8 -8 -8 -8 -8 -8
-1 -1 -1 -1 -1 -1 -1 -0 -0 -0 -0 -0 0 0 -0 -0 -0 -1 -1 -1 -2 -2 -3 -3 -4 -4 -5 -5 -6 -6 -6 -6 -7 -7 -8 -8 -8 -8 -8 -9 -9 -9 -9
Height
3190 3190 3190 3190 3190 3189 3189 3188 3187 3186 3186 3185 3184 3184 3182 3182 3182 3181 3180 3179 3177 3175 3175 3173 3172 3170 3168 3166 3165 3165 3164 3163 3162 3162 3161 3161 3160 3160 3159 3159 3158 3158 3158
3187 3187 3187 3187 3186 3185 3184 3184 3183 3183 3182 3181 3180 3179 3177 3177 3177 3177 3176 3175 3173 3172 3171 3170 3168 3167 3165 3164 3163 3162 3162 3161 3160 3159 3159 3159 3158 3158 3157 3157 3156 3156 3155
3182 3182 3182 3182 3181 3180 3180 3179 3179 3179 3178 3176 3175 3173 3172 3171 3172 3172 3171 3170 3169 3167 3166 3165 3165 3163 3162 3160 3159 3159 3159 3159 3158 3157 3156 3156 3156 3155 3155 3154 3153 3153 3153
3176 3176 3177 3176 3176 3175 3174 3173 3173 3172 3172 3171 3170 3168 3167 3164 3165 3165 3165 3164 3163 3162 3161 3159 3159 3159 3158 3156 3155 3155 3155 3155 3154 3154 3153 3153 3152 3152 3151 3151 3150 3150 3149
3170 3170 3170 3170 3169 3168 3168 3167 3166 3165 3165 3164 3163 3162 3161 3159 3157 3158 3158 3157 3156 3155 3154 3153 3153 3153 3152 3152 3150 3150 3149 3150 3150 3149 3149 3148 3148 3148 3147 3147 3147 3147 3146
3165 3164 3163 3163 3163 3161 3161 3161 3159 3158 3158 3158 3155 3154 3153 3153 3151 3150 3151 3150 3150 3149 3148 3147 3146 3146 3146 3145 3145 3144 3144 3143 3143 3143 3143 3143 3142 3142 3142 3142 3142 3142 3142
3157 3157 3156 3155 3155 3154 3154 3154 3152 3152 3150 3150 3148 3146 3145 3144 3144 3144 3142 3143 3143 3142 3141 3140 3139 3138 3138 3138 3138 3137 3137 3137 3137 3137 3137 3137 3137 3136 3136 3137 3136 3136 3137
3150 3149 3149 3147 3146 3145 3145 3145 3145 3144 3143 3143 3140 3138 3133 3134 3136 3137 3135 3134 3134 3134 3133 3132 3131 3130 3130 3130 3130 3130 3130 3130 3130 3130 3130 3130 3130 3130 3130 3129 3130 3130 3129
3140 3139 3138 3137 3137 3137 3136 3136 3136 3135 3134 3134 3133 3132 3127 3123 3125 3127 3127 3126 3126 3125 3125 3124 3123 3121 3121 3121 3121 3121 3121 3121 3121 3121 3122 3122 3122 3123 3123 3122 3122 3123 3122
3132 3131 3131 3130 3128 3128 3127 3127 3126 3126 3126 3125 3124 3123 3120 3118 3115 3113 3115 3117 3117 3116 3115 3115 3113 3112 3111 3110 3109 3108 3109 3110 3112 3111 3112 3113 3113 3112 3113 3113 3113 3114 3114
3124 3124 3123 3123 3122 3120 3119 3118 3118 3117 3116 3115 3115 3113 3112 3109 3107 3105 3102 3103 3106 3105 3104 3102 3102 3102 3100 3099 3096 3093 3093 3095 3096 3100 3100 3101 3102 3100 3101 3102 3102 3103 3104
3117 3117 3116 3116 3115 3113 3111 3109 3109 3108 3107 3106 3104 3104 3103 3100 3097 3095 3093 3092 3086 3086 3089 3091 3090 3090 3090 3086 3083 3082 3079 3081 3083 3085 3087 3089 3088 3088 3086 3087 3090 3091 3091
3108 3109 3109 3109 3107 3106 3104 3102 3101 3099 3097 3096 3096 3094 3093 3091 3088 3086 3083 3081 3077 3077 3076 3076 3079 3078 3078 3074 3075 3074 3073 3071 3072 3070 3070 3073 3075 3074 3075 3076 3078 3078 3079
3099 3098 3098 3099 3098 3098 3096 3094 3093 3091 3089 3087 3085 3084 3082 3080 3079 3076 3074 3071 3067 3066 3065 3063 3062 3065 3066 3066 3064 3062 3062 3061 3061 3061 3060 3062 3064 3065 3066 3068 3068 3067 3067
3090 3089 3089 3089 3088 3086 3085 3085 3084 3082 3080 3078 3076 3074 3073 3071 3069 3068 3065 3063 3060 3055 3053 3054 3053 3054 3055 3054 3053 3054 3053 3052 3050 3051 3052 3053 3051 3053 3054 3055 3056 3057 3057
3081 3080 3081 3080 3079 3078 3077 3076 3075 3074 3073 3070 3068 3066 3065 3063 3061 3058 3057 3054 3051 3047 3043 3041 3041 3041 3044 3042 3042 3043 3042 3042 3041 3041 3043 3043 3042 3043 3044 3045 3045 3046 3047
3074 3073 3073 3072 3071 3070 3069 3068 3067 3066 3065 3063 3062 3060 3057 3055 3053 3051 3048 3045 3042 3039 3034 3028 3026 3030 3033 3030 3032 3033 3033 3033 3033 3034 3034 3033 3034 3033 3034 3035 3035 3035 3036
3068 3066 3066 3065 3064 3063 3063 3061 3060 3059 3058 3056 3054 3052 3049 3048 3045 3041 3039 3035 3033 3030 3026 3022 3017 3018 3020 3021 3023 3024 3024 3023 3025 3026 3024 3024 3024 3025 3027 3025 3025 3025 3024
3061 3060 3059 3058 3058 3057 3056 3054 3054 3052 3051 3049 3047 3045 3043 3040 3038 3035 3032 3030 3027 3024 3022 3020 3016 3013 3016 3013 3014 3016 3017 3017 3017 3015 3017 3015 3015 3017 3017 3016 3015 3014 3013
3055 3055 3054 3053 3053 3052 3050 3049 3048 3047 3045 3042 3041 3038 3036 3033 3031 3029 3026 3023 3021 3020 3018 3016 3014 3012 3011 3010 3009 3009 3011 3011 3008 3007 3008 3006 3007 3007 3007 3006 3005 3003 3002
3051 3051 3050 3050 3049 3047 3046 3045 3044 3042 3039 3037 3034 3032 3031 3028 3026 3023 3021 3018 3016 3014 3014 3012 3009 3008 3006 3005 3005 3004 3003 3003 3001 3000 3000 2999 2997 2999 2998 2997 2996 2996 2995
3048 3048 3048 3047 3045 3043 3042 3041 3040 3037 3034 3032 3029 3027 3025 3022 3020 3018 3016 3015 3014 3012 3010 3007 3005 3004 3002 3001 2999 2998 2997 2995 2993 2991 2992 2990 2990 2991 2991 2989 2989 2989 2987
3044 3044 3045 3044 3042 3039 3037 3036 3034 3033 3030 3027 3025 3023 3020 3018 3015 3014 3012 3010 3008 3006 3003 3001 2998 2996 2995 2994 2993 2991 2989 2988 2987 2985 2986 2985 2985 2985 2984 2982 2981 2981 2979
3042 3042 3043 3043 3041 3039 3036 3034 3032 3030 3028 3025 3023 3020 3017 3014 3012 3009 3007 3005 3002 3000 2997 2995 2992 2990 2988 2985 2983 2982 2981 2980 2980 2981 2982 2981 2979 2979 2978 2976 2975 2973 2971
3040 3041 3042 3042 3040 3037 3035 3033 3030 3028 3025 3023 3020 3017 3013 3010 3007 3004 3001 2998 2995 2992 2989 2987 2985 2982 2979 2977 2976 2976 2976 2977 2977 2976 2976 2975 2973 2972 2970 2968 2966 2965 2964
3042 3042 3042 3041 3039 3036 3033 3031 3029 3025 3022 3019 3016 3012 3009 3006 3002 2999 2995 2991 2988 2985 2981 2979 2976 2974 2972 2972 2972 2972 2971 2971 2970 2969 2966 2967 2966 2964 2964 2961 2959 2958 2956
Wind_Speed
18 18 17 18 19 19 20 21 22 23 23 24 25 25 25 23 22 22 21 21 21 22 21 20 20 18 17 17 15 14 13 12 11 10 9 9 10 9 9 9 9 9 10
21 21 21 21 21 21 22 23 23 24 25 26 26 27 27 27 26 25 24 24 24 23 23 23 21 20 19 18 17 16 15 14 13 12 11 11 11 11 11 11 11 11 11
22 23 23 23 23 25 26 26 26 26 25 25 26 26 28 29 28 27 26 26 26 25 25 25 24 22 20 19 18 18 18 17 15 14 13 13 12 12 12 11 11 11 11
24 25 25 25 26 26 27 28 29 30 30 28 27 28 28 29 29 28 28 27 27 28 27 27 26 25 23 21 21 20 20 19 18 17 16 15 14 14 13 13 13 12 11
27 28 29 29 28 28 28 28 29 29 29 29 30 30 30 31 32 31 30 30 29 29 29 28 27 26 26 24 23 23 23 23 22 21 19 18 17 17 16 16 15 15 14
30 31 30 30 30 31 30 29 30 31 32 30 33 33 32 32 34 33 32 32 31 29 28 29 29 28 28 27 26 25 26 26 25 25 24 23 22 21 20 19 18 17 16
33 34 35 36 36 36 34 34 34 35 35 34 35 37 37 35 35 34 34 33 31 29 29 29 30 30 30 30 29 29 29 29 29 28 27 27 26 25 23 23 23 23 22
36 38 38 38 39 38 38 38 38 38 38 38 39 38 42 41 38 35 35 35 33 32 31 30 31 32 32 33 32 32 32 32 32 32 31 30 29 29 29 27 28 27 27
36 37 36 39 39 38 39 38 38 38 39 40 40 42 45 46 43 39 36 36 36 35 32 32 33 32 33 34 35 35 34 35 35 35 35 34 34 32 34 33 31 32 31
34 35 35 36 37 38 38 39 39 38 39 40 42 42 44 46 47 47 45 40 39 40 39 36 34 35 33 35 39 37 36 36 38 39 39 40 39 35 38 37 34 35 34
31 31 33 32 34 37 37 38 40 41 41 40 41 41 44 46 46 49 50 50 44 43 42 41 39 37 39 42 45 40 41 41 39 43 44 46 44 41 42 40 38 37 37
31 31 32 32 33 35 33 35 36 37 37 38 39 39 40 41 48 45 48 54 55 44 43 45 45 42 43 48 42 43 49 41 42 49 49 51 49 48 50 51 46 44 44
35 35 34 34 35 35 34 36 37 36 38 39 38 40 40 41 41 44 46 51 46 48 52 47 45 42 46 47 44 51 47 49 50 56 54 52 52 57 54 48 44 51 45
36 37 36 35 35 34 34 36 37 39 40 40 41 41 41 41 40 39 40 42 45 45 45 49 39 39 42 45 45 45 46 43 45 45 57 52 55 58 55 46 46 43 35
35 34 35 33 33 35 35 35 36 36 36 37 37 38 39 39 40 41 41 39 41 45 44 46 46 38 39 44 43 46 44 45 39 41 39 46 40 37 38 47 43 39 37
29 29 27 28 30 31 32 32 32 33 34 33 32 32 33 34 34 33 35 37 36 41 54 54 40 36 40 35 41 38 31 21 20 28 30 34 30 33 38 35 36 38 40
26 27 29 28 28 29 29 29 29 29 27 28 30 30 32 35 39 41 40 37 39 42 39 41 36 37 38 30 31 29 18 19 24 25 30 28 28 29 33 36 38 37 36
27 29 29 27 26 26 26 25 25 25 24 24 25 27 29 32 37 29 25 32 34 35 32 31 19 30 29 35 27 27 24 25 29 29 28 27 31 32 32 33 33 35 37
28 26 25 24 22 22 21 21 22 22 22 22 23 25 28 28 24 26 30 32 33 32 25 26 18 11 18 20 18 21 24 25 26 25 27 27 29 29 31 33 35 38 40
21 20 18 17 17 18 18 20 21 22 23 23 25 26 26 23 22 25 30 32 26 24 19 16 17 20 20 18 17 19 23 25 23 26 26 28 30 32 33 33 31 28 27
12 13 13 13 15 16 18 19 19 19 20 21 21 22 23 22 24 27 27 20 21 17 19 27 21 19 20 20 20 21 22 24 27 29 30 31 29 26 23 21 22 24 25
12 11 11 11 13 15 17 17 17 17 20 21 22 23 23 24 24 22 18 18 21 20 24 23 21 19 18 20 21 24 27 29 31 31 25 21 19 20 21 21 23 24 25
11 10 8 8 10 8 6 5 6 8 13 14 16 18 20 19 17 17 20 19 19 19 19 19 20 20 21 23 26 28 29 28 23 20 15 19 21 21 21 23 23 24 25
6 6 3 5 5 7 8 8 11 14 14 14 15 14 15 15 14 14 17 20 21 22 23 23 25 27 27 27 26 24 19 16 17 19 18 18 22 20 21 23 23 23 25
3 8 8 2 3 7 8 10 11 12 13 14 16 16 17 18 19 20 22 22 23 25 26 26 27 27 25 22 18 16 16 18 19 21 20 19 20 20 22 23 22 22 26
6 5 4 5 6 9 10 11 12 13 14 16 17 18 19 20 21 21 22 23 24 24 25 24 24 23 19 16 16 18 18 18 18 19 22 22 21 22 20 22 22 23 27
Wind_Direction
266 268 272 278 281 283 284 283 281 281 280 280 283 284 285 285 285 287 290 294 298 301 301 301 304 310 309 303 297 294 290 288 287 289 289 291 293 290 287 283 282 279 279
268 271 273 276 280 282 281 282 284 284 284 284 282 282 282 282 283 284 286 289 291 295 296 295 295 298 302 298 292 287 283 280 282 284 286 288 289 288 288 287 287 287 284
270 272 276 279 282 283 281 280 281 281 282 282 283 285 284 282 283 283 283 284 286 289 290 289 287 287 290 290 285 281 278 277 277 279 281 285 286 286 286 286 286 285 286
274 276 278 284 288 287 285 283 281 279 277 277 281 282 282 282 282 281 280 280 282 284 284 283 283 282 284 285 281 276 272 270 271 272 273 275 278 280 280 280 282 282 283
273 276 280 285 288 287 284 285 284 283 280 280 278 277 278 279 280 280 281 281 281 281 280 279 280 278 278 279 279 274 268 266 266 266 267 268 269 272 276 279 280 282 284
274 275 279 282 284 283 282 281 282 282 281 282 282 280 278 278 278 281 281 280 282 281 278 278 278 275 272 273 274 271 266 263 262 262 263 262 263 265 268 271 275 276 276
276 278 281 282 283 282 281 279 277 280 280 283 281 282 282 279 277 279 281 281 279 281 277 274 275 273 270 268 268 267 265 262 260 259 259 259 262 263 264 268 269 271 274
273 274 275 276 276 277 278 277 278 279 279 279 280 281 279 278 278 280 279 279 278 278 277 276 273 270 267 266 266 265 263 261 259 258 258 259 260 263 265 263 266 267 269
269 271 271 274 275 276 278 278 277 276 277 277 276 278 279 281 282 279 278 276 276 277 277 277 276 272 266 264 262 262 261 259 257 257 257 257 258 259 262 263 265 266 266
271 270 270 271 274 275 276 277 278 276 275 275 276 277 278 278 280 278 279 276 274 275 276 277 277 273 263 259 257 255 252 254 257 256 255 256 255 255 259 261 262 265 266
272 272 272 272 272 274 276 276 275 276 276 275 274 275 278 279 274 277 279 278 275 274 272 273 273 271 265 263 271 250 246 246 246 250 254 255 253 251 253 260 260 261 264
272 271 272 275 278 279 278 275 275 276 276 276 273 276 279 281 279 285 278 286 271 269 266 269 268 267 263 269 262 271 268 247 247 254 250 254 252 251 248 254 254 261 260
274 273 273 272 272 273 273 270 277 277 280 281 281 283 283 284 283 281 282 284 283 290 273 266 268 266 266 276 279 271 279 263 258 252 246 248 255 253 255 258 259 263 257
275 276 277 275 274 274 271 272 275 278 280 282 284 283 283 285 285 284 283 284 288 296 287 281 279 270 272 276 277 282 276 286 277 281 264 254 261 263 268 265 270 268 260
274 274 275 277 276 277 279 280 280 281 283 284 285 286 288 291 293 291 286 280 281 282 281 273 275 271 271 271 281 275 282 282 282 280 265 275 270 266 267 268 266 265 265
273 273 275 275 274 272 273 278 283 285 285 285 288 290 291 291 291 289 286 286 287 290 277 280 269 272 272 279 283 280 272 281 288 277 273 280 274 267 265 263 263 271 276
273 275 277 273 273 276 279 280 279 280 283 288 286 284 285 290 286 282 284 280 288 293 287 290 269 267 273 271 287 268 253 261 261 264 265 271 268 261 261 268 273 275 275
272 275 273 273 276 277 275 274 276 278 278 281 283 291 290 288 292 287 285 289 283 291 299 319 311 295 288 268 254 264 264 252 263 267 265 268 270 271 272 270 271 274 275
272 271 272 276 276 272 273 275 274 277 278 282 286 285 291 284 279 284 288 291 283 287 293 294 315 304 313 282 261 261 271 264 258 261 266 266 266 272 274 277 279 279 280
268 270 272 275 276 276 276 275 276 278 282 286 285 289 290 282 283 288 292 296 292 288 293 291 299 290 290 279 275 264 257 259 266 265 267 270 276 279 281 280 279 281 284
269 274 276 278 284 284 286 288 287 286 286 283 286 289 283 282 287 288 298 298 305 304 281 281 294 284 272 269 267 266 267 268 269 271 274 279 280 278 278 282 282 284 285
274 275 283 285 294 293 286 284 287 290 296 292 288 287 289 290 294 299 302 313 282 287 285 284 281 281 276 278 274 271 270 273 274 275 276 274 271 273 278 282 282 284 285
279 272 278 300 315 315 326 317 320 344 354 329 304 294 301 302 306 306 296 296 297 291 288 285 288 286 282 277 274 274 274 272 265 265 269 269 274 275 278 280 282 283 282
262 252 245 139 55 40 38 20 349 340 345 338 325 320 313 312 306 298 292 291 290 288 286 286 286 283 282 284 285 281 271 266 266 267 266 266 274 277 277 276 278 278 279
121 143 141 349 13 3 2 357 347 344 342 335 330 327 324 318 314 311 306 301 297 295 294 290 287 286 285 279 265 252 251 254 259 265 267 269 275 276 278 279 279 279 278
126 165 319 317 327 337 344 340 335 338 336 333 332 330 327 323 321 318 313 310 308 305 300 297 292 286 279 259 247 246 250 254 261 270 277 279 280 279 274 276 277 275 272